Temp_Advection
nan nan nan nan nan nan nan nan nan nan nan nan nan nan nan nan nan nan nan nan nan nan nan nan nan nan nan nan nan nan nan nan nan nan nan nan nan nan nan nan nan nan nan
nan 1 1 0 0 0 0 1 1 0 0 0 -0 -0 0 0 -0 -1 -0 0 0 -0 0 0 0 0 1 1 0 0 0 0 0 -0 0 0 0 -0 0 0 0 0 nan
nan 0 1 1 -0 -0 0 1 1 1 0 -0 -0 -0 -0 0 -0 -0 0 0 0 0 0 -0 0 1 1 0 0 0 0 0 0 0 0 0 0 0 -0 0 0 0 nan
nan 0 -1 -0 0 -0 0 1 1 1 0 -0 -0 -0 -0 0 -0 0 0 0 0 0 0 -0 0 0 1 1 0 0 0 0 0 0 0 0 -0 0 0 -0 0 0 nan
nan -2 -1 1 0 0 0 0 1 1 1 0 0 0 0 -0 -0 0 0 0 0 0 0 0 0 1 1 1 0 0 0 0 0 0 0 -0 -0 0 0 0 -0 -0 nan
nan -0 3 0 -1 -0 0 0 0 1 1 0 0 0 -0 -1 -0 1 1 0 0 0 0 1 1 1 0 0 0 0 0 0 0 0 0 -0 0 0 0 -0 0 0 nan
nan 1 2 1 -2 -0 1 0 0 1 1 1 0 0 0 0 0 1 1 1 0 0 0 0 2 1 0 0 0 1 0 0 0 0 0 0 0 0 0 0 0 0 nan
nan 4 1 -1 -0 1 -1 -1 0 1 1 1 1 1 0 1 1 0 0 1 1 0 0 1 1 1 0 1 1 0 0 0 0 0 0 0 0 0 0 0 0 0 nan
nan -2 -3 -1 0 -1 -2 -0 1 1 0 1 1 1 0 -0 0 1 1 1 1 0 1 1 1 0 1 1 1 0 0 0 0 0 0 0 0 0 0 0 0 0 nan
nan -1 1 1 0 -2 0 3 2 2 1 2 1 0 1 1 1 1 1 2 1 0 0 1 1 1 1 0 0 0 -0 0 1 0 0 0 0 0 0 0 0 0 nan
nan 3 2 0 -2 1 4 2 4 4 2 2 3 2 0 1 1 1 2 1 0 0 0 1 1 0 0 0 1 0 0 1 0 0 0 0 0 0 -0 0 0 0 nan
nan 1 -1 -1 1 4 3 5 4 1 1 3 2 -2 -1 2 1 1 2 1 1 0 1 1 1 0 1 1 1 0 0 0 0 -0 0 0 0 0 0 0 0 0 nan
nan -1 1 2 3 1 2 1 0 0 0 -0 -1 0 1 -2 -1 3 2 1 -0 1 2 1 1 1 1 1 0 0 0 0 -0 -0 0 0 0 0 0 0 0 0 nan
nan 0 1 1 2 1 1 0 -1 -6 -2 7 6 2 1 -1 2 2 1 1 1 2 1 2 1 1 1 0 0 -0 -0 0 0 0 0 0 0 0 0 0 0 0 nan
nan 1 1 0 0 1 1 0 1 2 4 4 1 1 1 1 1 2 5 4 2 1 1 1 0 0 0 0 -0 -0 -0 0 0 0 0 0 0 0 1 0 0 0 nan
nan -0 0 1 1 1 1 2 1 0 0 0 0 1 1 1 -0 -0 -0 -0 -1 1 1 0 -0 0 0 -0 -0 -0 0 0 0 0 0 0 0 0 1 1 0 0 nan
nan -0 -0 0 1 1 2 1 0 0 1 2 2 1 -1 0 0 0 -1 0 1 1 -0 -0 0 1 -0 -0 0 0 0 0 0 0 0 0 0 1 1 1 0 0 nan
nan -0 1 1 1 1 2 1 1 2 2 2 2 1 -0 -0 1 0 -1 1 1 -1 -0 0 0 -0 -0 0 0 0 0 0 0 0 0 0 1 1 1 0 0 0 nan
nan 0 0 0 0 1 3 3 3 2 1 -0 1 1 1 1 0 0 0 2 -1 -0 0 -0 -0 -0 0 0 0 0 0 0 0 0 0 1 1 1 0 0 0 0 nan
nan -0 -1 0 0 1 0 1 1 -0 -0 -0 -0 -0 -0 1 0 0 1 -0 -0 1 -0 -0 0 0 0 0 0 0 0 0 0 0 1 1 1 0 0 0 0 0 nan
nan -0 -0 -0 0 0 -0 -0 -1 0 -1 -0 0 -1 -1 0 -0 -0 -0 -0 0 -0 0 0 0 0 0 0 0 1 0 0 0 1 1 0 0 0 0 0 0 0 nan
nan -0 -0 -0 0 -0 -0 -1 -1 -0 0 -1 0 -1 0 0 -0 -0 0 0 -0 0 0 1 1 0 0 1 1 0 0 0 1 1 0 0 0 0 0 0 0 0 nan
nan -0 -0 -1 -0 -0 -0 -0 -0 -0 1 0 -1 -1 0 -0 -0 0 0 0 0 0 0 0 0 0 0 0 0 0 0 0 1 0 0 0 0 0 0 0 0 0 nan
nan 0 -0 -0 -0 -0 -0 0 0 0 0 0 -0 0 0 0 0 0 0 0 0 0 0 0 0 0 0 0 0 0 0 0 0 0 0 0 0 0 0 -0 -0 0 nan
nan -0 0 0 0 0 0 0 0 0 1 1 1 1 1 1 1 1 1 0 0 0 0 0 0 0 0 0 0 0 0 0 0 0 0 0 0 0 0 -0 -0 0 nan
nan nan nan nan nan nan nan nan nan nan nan nan nan nan nan nan nan nan nan nan nan nan nan nan nan nan nan nan nan nan nan nan nan nan nan nan nan nan nan nan nan nan nan
Wind_Speed
56 54 53 51 47 44 42 37 33 29 31 31 33 29 26 25 24 24 22 19 18 18 16 16 15 15 17 16 17 15 13 12 12 12 11 9 9 7 8 9 10 11 14
55 54 55 53 50 48 45 39 36 33 32 31 34 33 30 28 25 25 23 22 20 19 19 18 19 17 16 16 16 15 14 13 13 13 13 11 11 12 12 10 11 13 14
54 54 54 55 53 50 47 43 39 36 34 36 35 37 34 32 28 25 24 23 22 20 19 20 19 22 20 18 16 16 14 15 16 16 15 15 15 13 13 14 14 16 18
53 53 54 54 53 51 47 44 42 39 37 38 40 40 37 35 31 28 28 27 25 24 22 20 20 23 25 20 17 16 16 17 18 18 18 17 17 16 16 19 23 20 19
50 52 54 54 50 48 49 45 41 41 41 39 42 42 42 38 36 34 31 29 27 25 25 24 23 23 23 24 21 19 18 18 19 19 20 20 21 22 21 21 21 20 22
46 49 51 53 50 48 50 49 44 43 45 43 43 46 45 43 40 37 33 31 29 27 27 26 28 26 22 23 25 22 20 20 20 19 19 20 19 20 20 15 16 19 21
47 46 48 51 50 48 47 50 49 46 46 48 45 45 49 46 43 40 36 34 33 32 28 27 29 28 21 22 23 26 23 20 22 20 20 18 18 14 14 15 17 18 18
49 49 48 48 47 47 48 50 51 49 48 48 49 47 47 48 46 43 37 36 36 33 31 29 28 25 21 22 24 26 25 21 20 19 18 15 17 17 18 19 18 17 18
48 50 48 46 46 47 48 50 53 53 51 50 50 49 48 45 44 41 39 41 39 36 31 28 24 21 20 22 24 26 24 21 18 17 14 15 18 18 18 17 15 17 19
47 46 46 46 47 47 46 49 51 53 53 52 51 51 49 46 43 37 40 42 41 36 29 27 24 21 20 22 24 26 25 21 17 16 16 16 17 16 15 13 13 15 14
43 43 45 45 46 44 47 47 48 52 52 52 51 52 49 45 42 37 37 38 36 31 29 28 29 21 18 20 22 23 21 17 15 17 16 16 15 14 12 11 12 11 10
36 37 42 43 45 48 46 45 45 44 46 47 44 46 48 44 40 38 38 38 34 32 31 26 22 21 19 20 21 20 20 20 16 17 18 16 14 12 10 12 13 12 12
28 32 35 39 43 44 45 46 41 39 41 46 47 45 43 41 39 37 34 33 33 32 27 27 27 24 22 23 22 20 20 20 19 18 16 15 13 11 12 12 13 13 14
24 25 28 34 37 38 40 42 44 47 50 52 52 51 44 42 41 40 39 38 30 26 26 25 26 22 18 17 19 20 19 19 19 16 16 15 16 14 13 13 13 14 16
9 17 20 23 31 34 36 40 44 44 41 37 35 34 38 41 38 36 38 36 26 16 20 27 28 21 17 18 18 17 17 18 19 16 16 16 15 16 17 15 14 15 15
15 16 15 17 23 30 34 38 39 38 36 34 35 39 36 22 19 12 8 8 9 25 27 31 26 18 20 21 19 16 17 16 15 14 16 16 16 17 18 15 15 15 13
18 19 16 16 20 24 33 35 29 28 36 38 34 29 26 9 6 18 32 16 29 32 33 26 19 19 22 21 18 18 18 15 14 13 13 13 15 17 17 15 14 14 9
10 12 18 15 17 24 33 36 33 34 39 33 21 23 27 11 12 13 19 28 34 31 26 24 19 18 22 20 18 18 17 15 14 12 12 13 15 17 15 13 12 9 9
9 9 4 7 14 26 36 37 38 35 32 28 23 16 13 25 28 24 19 32 37 32 26 23 21 22 21 20 19 17 15 15 13 12 13 15 17 16 13 12 10 7 6
8 6 6 14 14 17 14 13 26 15 12 10 13 23 25 26 26 26 32 34 26 23 22 22 22 20 20 20 18 17 17 14 12 14 15 15 15 13 12 12 8 6 4
9 8 4 6 12 6 7 11 11 7 10 8 14 31 28 27 30 32 30 27 24 20 19 18 18 19 19 18 18 17 13 10 11 14 15 14 14 13 14 11 6 5 4
13 7 8 11 13 14 14 10 9 18 14 16 34 35 28 29 26 23 24 23 21 20 18 16 18 18 17 18 17 11 7 9 11 13 14 13 13 15 15 11 7 4 4
14 14 11 11 4 7 12 13 13 14 24 24 24 24 24 23 21 23 25 22 20 18 16 18 17 18 18 16 10 5 5 8 11 11 11 12 14 17 14 10 8 5 4
5 6 10 12 11 11 11 11 12 15 18 20 22 25 24 23 25 25 24 23 22 17 16 19 20 19 17 12 5 5 6 9 11 11 12 13 14 15 12 9 6 5 3
9 14 10 9 7 6 8 11 12 9 12 16 18 17 20 24 25 27 27 25 23 20 20 20 21 19 12 11 11 6 5 5 7 9 10 11 13 14 11 9 7 6 4
7 4 4 2 6 4 2 9 12 13 15 16 19 22 19 22 24 23 25 27 24 22 21 21 19 19 15 14 9 8 7 4 4 4 5 8 11 13 12 10 9 6 4
Wind_Direction
236 238 237 235 235 236 239 238 238 235 231 231 229 230 232 236 238 238 233 233 236 235 236 237 239 244 247 249 244 246 249 254 270 276 273 266 232 257 278 283 280 269 283
236 238 239 238 237 237 239 239 236 238 232 231 230 230 233 232 234 235 232 232 236 236 237 239 237 239 246 250 245 243 248 251 261 268 257 251 254 263 265 272 278 280 283
237 238 239 239 237 238 239 240 237 237 235 230 231 230 230 228 227 232 233 235 239 244 244 245 245 240 243 246 249 247 250 256 264 262 252 249 256 265 276 283 292 306 301
237 237 238 239 239 237 238 238 238 236 236 231 231 231 229 229 229 232 235 238 241 245 246 247 247 246 245 245 246 248 248 251 257 264 261 261 267 275 282 287 284 291 292
235 237 239 240 239 238 236 236 237 235 237 235 232 232 232 231 231 232 235 239 243 248 252 253 251 248 249 248 249 250 251 251 253 259 259 268 277 284 283 285 283 284 286
236 240 239 238 238 236 235 234 235 237 237 237 235 234 235 234 234 236 237 241 245 250 254 258 258 250 249 253 248 253 256 257 257 260 263 272 285 289 283 287 275 288 293
238 237 237 236 236 235 233 232 233 236 238 238 238 238 239 239 239 240 241 243 246 250 254 258 260 253 252 248 249 248 254 259 255 263 264 275 289 286 287 282 282 286 289
238 236 233 233 235 235 233 232 232 233 236 238 238 240 242 242 242 243 244 246 247 250 253 256 259 257 250 246 247 247 249 261 255 259 270 274 273 273 282 292 288 286 288
234 235 233 233 234 233 234 232 231 232 234 236 240 241 243 244 245 244 243 244 245 247 250 253 253 250 244 237 239 242 244 252 244 258 254 265 271 276 284 285 286 287 291
239 239 238 235 235 234 237 235 234 234 237 238 238 242 244 244 245 242 239 239 240 240 238 238 237 239 233 234 235 236 241 250 246 254 252 262 269 272 274 277 287 294 295
245 240 239 237 238 245 240 238 237 236 237 239 241 244 245 243 244 239 235 234 234 230 228 228 228 216 228 235 235 229 236 228 244 236 251 261 267 264 258 279 286 289 284
246 246 246 244 240 239 240 237 236 237 239 239 240 243 245 244 239 233 223 219 217 222 225 224 222 213 222 226 226 223 225 225 247 243 252 258 258 247 263 278 280 283 278
256 259 258 253 250 247 242 238 234 235 247 245 238 239 244 241 230 227 224 223 216 216 221 218 207 210 214 214 214 212 217 234 244 242 249 252 246 243 258 272 279 278 287
267 267 268 262 257 250 246 244 243 237 237 231 235 236 230 229 227 217 209 209 217 206 192 202 209 202 198 207 206 215 227 232 231 237 252 245 239 247 261 269 270 276 285
308 268 261 261 258 251 243 242 247 245 241 226 222 219 228 228 227 223 230 198 165 206 207 198 195 188 196 204 202 203 212 215 231 239 233 228 241 256 260 269 277 279 283
314 309 299 273 251 246 240 237 237 234 237 234 233 227 215 211 144 87 89 1 325 226 205 196 196 196 197 191 195 207 216 217 217 220 228 236 251 259 262 270 277 274 290
301 294 279 257 251 244 232 224 218 214 220 216 198 176 162 118 209 227 237 257 228 211 206 200 200 195 192 194 205 215 213 208 223 228 236 249 258 260 260 265 267 276 287
336 303 273 255 242 232 223 215 198 184 159 151 147 164 170 184 204 163 179 209 211 210 206 206 205 204 194 202 206 200 203 213 216 219 242 254 256 255 255 260 260 269 300
356 314 278 248 229 210 199 195 182 171 164 152 168 185 177 173 174 177 179 214 208 208 206 208 198 196 198 197 198 204 209 206 213 237 253 255 250 243 253 252 256 279 308
26 34 62 199 210 193 158 167 162 192 228 210 226 235 192 178 178 170 186 197 210 208 198 194 195 194 198 201 205 199 201 211 232 253 253 246 241 243 242 244 268 293 306
84 93 56 161 166 211 124 142 203 137 209 165 202 212 199 180 172 177 180 182 185 190 192 197 202 202 201 200 201 199 205 229 251 248 238 236 235 234 233 241 270 288 305
75 120 185 165 177 181 187 179 177 190 139 166 180 172 178 180 171 174 173 179 183 186 195 204 204 202 201 200 189 196 233 258 242 230 227 227 228 223 228 242 270 275 294
74 78 93 110 164 191 198 178 184 177 186 166 161 164 170 168 165 174 178 180 182 185 190 193 198 189 176 182 192 239 282 261 228 221 228 231 219 222 232 251 270 254 280
94 118 104 98 99 99 112 124 146 159 156 162 173 172 170 171 174 177 183 189 189 186 192 192 183 178 176 178 214 255 275 233 229 230 223 214 215 225 242 256 253 246 280
63 60 80 99 114 126 133 143 142 159 173 185 189 195 191 188 186 188 192 193 191 193 194 192 190 190 187 216 226 213 196 193 219 212 204 207 222 237 243 246 252 248 264
105 110 94 48 81 77 176 177 178 199 218 200 211 213 213 213 210 205 202 197 195 199 201 198 199 199 191 198 205 189 169 143 147 162 198 227 241 248 249 244 234 226 246
Height
1482 1488 1494 1500 1506 1512 1515 1521 1526 1529 1533 1537 1541 1545 1547 1550 1553 1556 1558 1560 1562 1565 1567 1568 1569 1570 1571 1571 1572 1574 1575 1577 1578 1579 1579 1579 1579 1579 1579 1579 1578 1578 1577
1471 1479 1484 1491 1498 1502 1507 1513 1520 1523 1527 1531 1535 1539 1541 1545 1548 1550 1553 1556 1558 1560 1562 1564 1565 1566 1568 1568 1569 1570 1572 1573 1574 1575 1575 1575 1576 1575 1573 1573 1573 1574 1573
1461 1468 1474 1479 1487 1493 1499 1506 1512 1516 1519 1523 1528 1530 1533 1537 1541 1544 1548 1551 1554 1556 1557 1559 1560 1562 1563 1564 1565 1566 1567 1568 1569 1569 1570 1571 1571 1572 1571 1571 1570 1570 1569
1452 1458 1463 1468 1474 1483 1490 1496 1501 1507 1511 1514 1518 1522 1525 1529 1534 1538 1541 1544 1547 1550 1552 1554 1555 1556 1558 1560 1561 1562 1563 1563 1564 1565 1566 1567 1568 1568 1567 1566 1564 1565 1563
1443 1448 1451 1456 1466 1473 1479 1486 1491 1497 1500 1504 1509 1513 1517 1521 1525 1529 1533 1537 1540 1543 1545 1547 1549 1551 1552 1554 1556 1557 1558 1559 1559 1560 1562 1563 1563 1563 1561 1559 1558 1557 1558
1432 1436 1443 1448 1456 1462 1469 1476 1481 1487 1492 1496 1500 1505 1508 1511 1516 1521 1526 1529 1533 1536 1538 1540 1541 1545 1546 1548 1549 1552 1553 1554 1555 1556 1557 1558 1558 1558 1556 1554 1552 1552 1551
1419 1425 1432 1438 1444 1450 1458 1465 1470 1475 1483 1487 1491 1496 1499 1504 1509 1514 1518 1522 1524 1527 1530 1532 1533 1535 1539 1540 1542 1546 1547 1548 1549 1552 1553 1554 1554 1554 1552 1549 1547 1546 1545
1408 1415 1421 1427 1434 1441 1447 1453 1459 1465 1469 1475 1481 1485 1490 1495 1500 1506 1511 1513 1515 1518 1521 1524 1526 1528 1530 1532 1535 1537 1540 1542 1544 1546 1547 1548 1548 1547 1547 1545 1542 1541 1540
1401 1407 1411 1417 1424 1430 1434 1440 1446 1453 1458 1462 1467 1474 1478 1484 1488 1496 1502 1503 1504 1508 1512 1515 1518 1520 1523 1525 1527 1530 1533 1534 1536 1538 1540 1541 1542 1542 1543 1542 1539 1537 1535
1395 1397 1402 1408 1413 1418 1423 1430 1437 1443 1448 1455 1459 1463 1468 1474 1477 1484 1487 1489 1491 1496 1501 1504 1506 1510 1513 1516 1519 1523 1526 1531 1533 1534 1535 1536 1537 1535 1535 1537 1536 1533 1531
1387 1392 1395 1400 1405 1410 1415 1422 1428 1434 1439 1443 1448 1452 1457 1462 1466 1471 1476 1479 1483 1488 1491 1493 1496 1496 1506 1510 1512 1515 1520 1524 1526 1527 1529 1531 1530 1530 1528 1530 1531 1530 1527
1387 1390 1393 1393 1396 1400 1405 1412 1420 1427 1434 1437 1439 1442 1445 1450 1455 1458 1461 1464 1470 1477 1481 1486 1491 1490 1493 1500 1505 1511 1514 1518 1520 1521 1523 1525 1525 1525 1525 1526 1526 1525 1525
1383 1385 1387 1390 1394 1400 1401 1405 1407 1415 1427 1431 1428 1430 1435 1439 1442 1450 1457 1464 1464 1466 1475 1479 1480 1482 1483 1491 1497 1503 1509 1512 1514 1516 1519 1520 1523 1520 1521 1520 1520 1522 1522
1377 1379 1383 1388 1392 1394 1398 1398 1403 1404 1396 1406 1408 1416 1419 1421 1429 1433 1436 1445 1457 1454 1461 1475 1480 1475 1478 1488 1490 1495 1500 1505 1509 1511 1514 1516 1518 1518 1518 1517 1515 1513 1515
1372 1374 1376 1379 1382 1386 1389 1390 1394 1398 1402 1409 1408 1414 1425 1422 1426 1435 1438 1428 1434 1453 1457 1466 1477 1473 1475 1482 1487 1491 1494 1498 1504 1504 1508 1509 1512 1514 1514 1513 1512 1510 1509
1367 1369 1369 1370 1373 1377 1379 1381 1385 1389 1395 1402 1407 1410 1411 1419 1428 1437 1433 1434 1433 1461 1462 1459 1463 1466 1473 1478 1483 1488 1494 1495 1500 1499 1503 1503 1506 1509 1510 1508 1507 1506 1502
1361 1361 1363 1363 1364 1366 1368 1372 1379 1381 1382 1389 1395 1400 1406 1409 1420 1425 1427 1448 1451 1456 1454 1455 1458 1464 1470 1474 1479 1481 1488 1492 1497 1497 1500 1499 1501 1503 1505 1502 1502 1502 1497
1359 1359 1358 1357 1359 1360 1362 1367 1372 1375 1378 1381 1389 1394 1380 1396 1415 1411 1420 1439 1446 1449 1446 1451 1457 1464 1466 1469 1474 1479 1484 1486 1492 1494 1496 1495 1497 1499 1499 1497 1496 1494 1490
1357 1357 1357 1356 1356 1356 1357 1359 1361 1366 1376 1388 1399 1396 1390 1395 1403 1404 1403 1431 1440 1445 1447 1453 1455 1460 1461 1466 1471 1475 1480 1483 1486 1491 1492 1491 1492 1494 1493 1493 1491 1487 1482
1357 1359 1358 1358 1361 1364 1364 1361 1360 1368 1372 1380 1390 1395 1399 1396 1401 1389 1408 1431 1441 1448 1449 1452 1456 1455 1459 1464 1469 1471 1476 1479 1481 1483 1485 1486 1488 1488 1488 1489 1486 1482 1478
1361 1360 1360 1359 1362 1368 1365 1364 1365 1360 1366 1363 1370 1388 1397 1398 1398 1403 1413 1424 1434 1441 1445 1448 1453 1457 1460 1462 1467 1471 1472 1474 1476 1479 1482 1481 1482 1482 1485 1484 1480 1477 1475
1362 1363 1364 1362 1365 1366 1367 1362 1364 1369 1358 1369 1387 1390 1395 1401 1398 1407 1414 1425 1432 1437 1442 1447 1452 1456 1456 1462 1463 1466 1471 1471 1471 1473 1476 1476 1477 1479 1482 1479 1476 1473 1472
1369 1371 1370 1365 1368 1370 1372 1368 1369 1369 1374 1381 1385 1388 1395 1396 1399 1412 1419 1425 1431 1436 1441 1446 1450 1453 1454 1459 1463 1463 1464 1469 1468 1467 1469 1471 1473 1476 1476 1473 1472 1470 1470
1374 1376 1373 1372 1374 1375 1376 1376 1380 1384 1385 1388 1392 1394 1395 1400 1406 1411 1418 1426 1434 1435 1442 1447 1447 1450 1450 1454 1459 1460 1462 1464 1463 1462 1463 1466 1469 1471 1470 1468 1467 1466 1466
1379 1378 1377 1378 1382 1382 1380 1379 1380 1386 1389 1390 1396 1399 1402 1405 1409 1413 1421 1425 1430 1436 1440 1443 1445 1449 1444 1451 1458 1457 1457 1459 1459 1459 1461 1462 1464 1465 1463 1462 1463 1463 1463
1381 1381 1383 1385 1383 1386 1386 1386 1388 1391 1394 1395 1399 1400 1404 1408 1412 1416 1421 1424 1428 1434 1438 1439 1442 1441 1443 1451 1455 1455 1453 1456 1457 1457 1457 1459 1460 1458 1456 1456 1458 1460 1460